When you browse on this site, cookies collect data to enhance your experience and personalize the content and advertising you see.
Visit our Privacy Policy to learn more. By continuing to use the site, you agree to this use of cookies and data.
  • In Germany
  • List of Countries
  • For 7 days
  • Water Temperature
  • Weather Map
  • Weather Widgets
  • user-avatar
    Login

    Hourly Weather Nagykanizsa

    Today, 25 February, Tuesday

    Time Temperature Precipitation Wind Pressure Humidity
    00:00 +4°C° 0 mm 3 mps 748 mmHg 67%
    01:00 +4°C° 0 mm 3 mps 747 mmHg 69%
    02:00 +4°C° 0 mm 3 mps 747 mmHg 70%
    03:00 +4°C° 0 mm 3 mps 746 mmHg 72%
    04:00 +3°C° 0 mm 3 mps 745 mmHg 74%
    05:00 +3°C° 0 mm 3 mps 745 mmHg 76%
    06:00 +3°C° 0 mm 3 mps 745 mmHg 78%
    07:00 +4°C° 0 mm 2 mps 744 mmHg 80%
    08:00 +5°C° 0 mm 3 mps 744 mmHg 77%
    09:00 +7°C° 0 mm 3 mps 744 mmHg 74%
    10:00 +8°C° 0 mm 4 mps 743 mmHg 71%
    11:00 +10°C° 0 mm 5 mps 743 mmHg 67%
    12:00 +11°C° 0 mm 6 mps 742 mmHg 64%
    13:00 +14°C° 0 mm 7 mps 742 mmHg 60%
    14:00 +14°C° 0 mm 7 mps 741 mmHg 61%
    15:00 +13°C° 0 mm 6 mps 740 mmHg 62%
    16:00 +13°C° 0 mm 6 mps 739 mmHg 63%
    17:00 +13°C° 0 mm 6 mps 739 mmHg 66%
    18:00 +11°C° 0 mm 6 mps 739 mmHg 69%
    19:00 +10°C° 0 mm 6 mps 739 mmHg 71%
    20:00 +10°C° 0 mm 6 mps 739 mmHg 72%
    21:00 +10°C° 0 mm 6 mps 738 mmHg 72%
    22:00 +9°C° 0 mm 6 mps 738 mmHg 73%
    23:00 +9°C° 0 mm 6 mps 737 mmHg 74%

    Tomorrow, 26 February, Wednesday

    Time Temperature Precipitation Wind Pressure Humidity
    00:00 +9°C° 0 mm 5 mps 737 mmHg 75%
    01:00 +9°C° 0 mm 5 mps 736 mmHg 77%
    02:00 +9°C° 0.6 mm 5 mps 736 mmHg 78%
    03:00 +10°C° 0.6 mm 4 mps 735 mmHg 79%
    04:00 +8°C° 0.6 mm 4 mps 735 mmHg 81%
    05:00 +8°C° 2.6 mm 4 mps 735 mmHg 83%
    06:00 +7°C° 2.6 mm 4 mps 734 mmHg 86%
    07:00 +6°C° 2.6 mm 4 mps 734 mmHg 88%
    08:00 +7°C° 0.9 mm 3 mps 735 mmHg 81%
    09:00 +8°C° 0.9 mm 3 mps 735 mmHg 74%
    10:00 +8°C° 0.9 mm 2 mps 735 mmHg 66%
    11:00 +8°C° 0.5 mm 3 mps 735 mmHg 67%
    12:00 +7°C° 0.5 mm 4 mps 735 mmHg 67%
    13:00 +6°C° 0.5 mm 5 mps 735 mmHg 67%
    14:00 +6°C° 0.4 mm 5 mps 735 mmHg 68%
    15:00 +5°C° 0.4 mm 4 mps 735 mmHg 68%
    16:00 +4°C° 0.4 mm 3 mps 735 mmHg 69%
    17:00 +4°C° 0 mm 3 mps 736 mmHg 69%
    18:00 +4°C° 0 mm 3 mps 736 mmHg 70%
    19:00 +4°C° 0 mm 3 mps 736 mmHg 71%
    20:00 +4°C° 0 mm 3 mps 737 mmHg 70%
    21:00 +3°C° 0 mm 4 mps 737 mmHg 70%
    22:00 +3°C° 0 mm 4 mps 738 mmHg 69%
    23:00 +3°C° 0 mm 3 mps 738 mmHg 68%

    Day after tomorrow, 27 February, Thursday

    Time Temperature Precipitation Wind Pressure Humidity
    00:00 +2°C° 0 mm 3 mps 738 mmHg 67%
    01:00 +2°C° 0 mm 3 mps 739 mmHg 67%
    02:00 +1°C° 0 mm 3 mps 739 mmHg 69%
    03:00 +2°C° 0 mm 2 mps 739 mmHg 71%
    04:00 +2°C° 0 mm 2 mps 740 mmHg 73%
    05:00 +2°C° 0 mm 2 mps 740 mmHg 73%
    06:00 +1°C° 0 mm 2 mps 741 mmHg 74%
    07:00 +1°C° 0 mm 2 mps 742 mmHg 75%
    08:00 +3°C° 0 mm 2 mps 742 mmHg 67%
    09:00 +3°C° 0 mm 3 mps 743 mmHg 59%
    10:00 +5°C° 0 mm 4 mps 743 mmHg 51%
    11:00 +6°C° 0 mm 4 mps 743 mmHg 47%
    12:00 +7°C° 0 mm 3 mps 743 mmHg 43%
    13:00 +8°C° 0 mm 3 mps 743 mmHg 40%
    14:00 +7°C° 0 mm 4 mps 742 mmHg 39%
    15:00 +7°C° 0 mm 4 mps 741 mmHg 39%
    16:00 +7°C° 0 mm 4 mps 741 mmHg 39%
    17:00 +7°C° 0 mm 5 mps 740 mmHg 43%
    18:00 +6°C° 0 mm 5 mps 739 mmHg 46%
    19:00 +4°C° 0 mm 6 mps 739 mmHg 49%
    20:00 +4°C° 0 mm 6 mps 738 mmHg 51%
    21:00 +4°C° 0 mm 7 mps 737 mmHg 53%
    22:00 +4°C° 0 mm 8 mps 737 mmHg 55%
    23:00 +4°C° 0 mm 8 mps 736 mmHg 61%

    28 February, Friday

    Time Temperature Precipitation Wind Pressure Humidity
    00:00 +4°C° 0 mm 7 mps 736 mmHg 66%
    01:00 +4°C° 0 mm 7 mps 736 mmHg 72%
    02:00 +4°C° 0 mm 7 mps 736 mmHg 73%
    03:00 +4°C° 0 mm 6 mps 736 mmHg 75%
    04:00 +5°C° 0 mm 5 mps 737 mmHg 76%
    05:00 +3°C° 0 mm 5 mps 738 mmHg 72%
    06:00 +3°C° 0 mm 5 mps 739 mmHg 68%
    07:00 +2°C° 0 mm 5 mps 740 mmHg 64%
    08:00 +3°C° 0 mm 6 mps 741 mmHg 57%
    09:00 +4°C° 0 mm 7 mps 742 mmHg 49%
    10:00 +5°C° 0 mm 9 mps 744 mmHg 42%
    11:00 +6°C° 0 mm 9 mps 744 mmHg 38%
    12:00 +6°C° 0 mm 8 mps 745 mmHg 35%
    13:00 +7°C° 0 mm 8 mps 745 mmHg 32%
    14:00 +8°C° 0 mm 7 mps 746 mmHg 33%
    15:00 +8°C° 0 mm 7 mps 747 mmHg 35%
    16:00 +7°C° 0 mm 6 mps 747 mmHg 36%
    17:00 +6°C° 0 mm 4 mps 748 mmHg 41%
    18:00 +5°C° 0 mm 3 mps 748 mmHg 46%
    19:00 +5°C° 0 mm 2 mps 749 mmHg 51%
    20:00 +4°C° 0 mm 2 mps 749 mmHg 52%
    21:00 +5°C° 0 mm 1 mps 749 mmHg 54%
    22:00 +4°C° 0 mm 1 mps 750 mmHg 55%
    23:00 +3°C° 0 mm 2 mps 749 mmHg 57%

    29 February, Saturday

    Time Temperature Precipitation Wind Pressure Humidity
    00:00 +3°C° 0 mm 2 mps 749 mmHg 59%
    01:00 +2°C° 0 mm 2 mps 749 mmHg 60%
    02:00 +1°C° 0 mm 3 mps 748 mmHg 60%
    03:00 +1°C° 0 mm 3 mps 748 mmHg 60%
    04:00 +1°C° 0 mm 3 mps 747 mmHg 60%
    05:00 0°C° 0 mm 4 mps 747 mmHg 61%
    06:00 0°C° 0 mm 4 mps 747 mmHg 61%
    07:00 0°C° 0 mm 4 mps 746 mmHg 62%
    08:00 +1°C° 0 mm 5 mps 746 mmHg 58%
    09:00 +3°C° 0 mm 5 mps 746 mmHg 55%
    10:00 +5°C° 0 mm 6 mps 745 mmHg 52%
    11:00 +7°C° 0 mm 6 mps 745 mmHg 52%
    12:00 +8°C° 0 mm 7 mps 744 mmHg 53%
    13:00 +9°C° 0 mm 7 mps 744 mmHg 54%
    14:00 +9°C° 0 mm 7 mps 743 mmHg 56%
    15:00 +9°C° 0 mm 6 mps 743 mmHg 58%
    16:00 +10°C° 0 mm 6 mps 742 mmHg 60%
    17:00 +9°C° 0 mm 6 mps 742 mmHg 62%
    18:00 +8°C° 0 mm 6 mps 742 mmHg 65%
    19:00 +7°C° 0 mm 6 mps 741 mmHg 68%
    20:00 +7°C° 0 mm 6 mps 741 mmHg 70%
    21:00 +7°C° 0 mm 6 mps 741 mmHg 72%
    22:00 +7°C° 0 mm 6 mps 740 mmHg 74%
    23:00 +7°C° 0.1 mm 6 mps 740 mmHg 76%

    1 March, Sunday

    Time Temperature Precipitation Wind Pressure Humidity
    00:00 +7°C° 0.1 mm 5 mps 740 mmHg 78%
    01:00 +7°C° 0.1 mm 5 mps 740 mmHg 80%
    02:00 +7°C° 1.3 mm 4 mps 740 mmHg 83%
    03:00 +6°C° 1.3 mm 4 mps 740 mmHg 87%
    04:00 +6°C° 1.3 mm 4 mps 741 mmHg 91%
    05:00 +5°C° 2.2 mm 4 mps 741 mmHg 88%
    06:00 +5°C° 2.2 mm 4 mps 741 mmHg 85%
    07:00 +3°C° 2.2 mm 5 mps 741 mmHg 82%
    08:00 +4°C° 1.3 mm 4 mps 742 mmHg 80%
    09:00 +5°C° 1.3 mm 4 mps 742 mmHg 77%
    10:00 +5°C° 1.3 mm 3 mps 743 mmHg 75%
    11:00 +5°C° 0.5 mm 3 mps 743 mmHg 73%
    12:00 +7°C° 0.5 mm 3 mps 743 mmHg 71%
    13:00 +7°C° 0.5 mm 3 mps 744 mmHg 69%
    14:00 +7°C° 0.1 mm 2 mps 744 mmHg 69%
    15:00 +7°C° 0.1 mm 2 mps 744 mmHg 70%
    16:00 +7°C° 0.1 mm 2 mps 744 mmHg 70%
    17:00 +6°C° 0 mm 2 mps 744 mmHg 76%
    18:00 +5°C° 0 mm 2 mps 744 mmHg 81%
    19:00 +5°C° 0 mm 2 mps 744 mmHg 87%
    20:00 +4°C° 0 mm 2 mps 745 mmHg 88%
    21:00 +4°C° 0 mm 2 mps 745 mmHg 90%
    22:00 +5°C° 0 mm 1 mps 745 mmHg 91%
    23:00 +4°C° 0 mm 1 mps 745 mmHg 91%
    Show more